TimeCET,TemperatureF,Dew PointF,Humidity,Sea Level PressureIn,VisibilityMPH,Wind Direction,Wind SpeedMPH,Gust SpeedMPH,PrecipitationIn,Events,Conditions,WindDirDegrees,DateUTC
12:00 AM,23.0,21.2,93,30.24,0.1,Variable,1.2,-,N/A,,Mostly Cloudy,0,2011-11-14 23:00:00
12:30 AM,21.2,19.4,93,30.24,0.1,Calm,Calm,-,N/A,Fog,Light Freezing Fog,0,2011-11-14 23:30:00
1:00 AM,23.0,21.2,93,30.24,0.1,ENE,2.3,-,N/A,Fog,Light Freezing Fog,70,2011-11-15 00:00:00
1:13 AM,22,21,94,30.35,0,East,4.5,,,Fog,Fog,100,2011-11-15 00:13:00
1:30 AM,23.0,23.0,100,30.24,0.1,Calm,Calm,-,N/A,Fog,Light Freezing Fog,0,2011-11-15 00:30:00
2:00 AM,24.8,23.0,93,30.21,0.1,SSW,5.8,-,N/A,Fog,Light Freezing Fog,210,2011-11-15 01:00:00
2:30 AM,24.8,23.0,93,30.21,0.1,SSW,2.3,-,N/A,Fog,Light Freezing Fog,200,2011-11-15 01:30:00
3:00 AM,23.0,21.2,93,30.21,0.1,Variable,1.2,-,N/A,Fog,Light Freezing Fog,0,2011-11-15 02:00:00
3:19 AM,23.0,21.2,93,30.21,0.1,East,2.3,-,N/A,Fog,Light Freezing Fog,100,2011-11-15 02:19:00
3:30 AM,23.0,21.2,93,30.21,0.1,ESE,2.3,-,N/A,Fog,Light Freezing Fog,120,2011-11-15 02:30:00
4:00 AM,23.0,21.2,93,30.21,0.1,Variable,1.2,-,N/A,Fog,Light Freezing Fog,0,2011-11-15 03:00:00
4:30 AM,23.0,21.2,93,30.21,0.1,Variable,1.2,-,N/A,Fog,Light Freezing Fog,0,2011-11-15 03:30:00
5:00 AM,24.8,23.0,93,30.21,0.1,Variable,1.2,-,N/A,Fog,Light Freezing Fog,0,2011-11-15 04:00:00
5:30 AM,24.8,23.0,93,30.21,0.1,Variable,1.2,-,N/A,Fog,Light Freezing Fog,0,2011-11-15 04:30:00
6:00 AM,24.8,23.0,93,30.21,0.1,Variable,1.2,-,N/A,Fog,Light Freezing Fog,0,2011-11-15 05:00:00
6:30 AM,24.8,23.0,93,30.21,0.1,Variable,1.2,-,N/A,Fog,Light Freezing Fog,0,2011-11-15 05:30:00
7:00 AM,24,23,93,30.32,0,NNW,2.2,,,Fog,Heavy Fog,330,2011-11-15 06:00:00
7:00 AM,24.8,23.0,93,30.21,0.1,Variable,2.3,-,N/A,Fog,Light Freezing Fog,0,2011-11-15 06:00:00
7:30 AM,24.8,23.0,93,30.21,0.1,Variable,1.2,-,N/A,Fog,Light Freezing Fog,0,2011-11-15 06:30:00
8:00 AM,24.8,23.0,93,30.24,0.1,Variable,2.3,-,N/A,Fog,Light Freezing Fog,0,2011-11-15 07:00:00
8:30 AM,24.8,24.8,100,30.24,0.1,Variable,2.3,-,N/A,Fog,Light Freezing Fog,0,2011-11-15 07:30:00
9:00 AM,24.8,24.8,100,30.24,0.1,Variable,2.3,-,N/A,Fog,Light Freezing Fog,0,2011-11-15 08:00:00
9:30 AM,26.6,24.8,93,30.24,0.1,Variable,2.3,-,N/A,Fog,Light Freezing Fog,0,2011-11-15 08:30:00
10:00 AM,26.6,26.6,100,30.24,0.1,West,3.5,-,N/A,Fog,Light Freezing Fog,270,2011-11-15 09:00:00
10:30 AM,26.6,26.6,100,30.24,0.1,Variable,2.3,-,N/A,Fog,Light Freezing Fog,0,2011-11-15 09:30:00
11:00 AM,28.4,26.6,93,30.24,0.1,North,3.5,-,N/A,Fog,Light Freezing Fog,360,2011-11-15 10:00:00
11:30 AM,28.4,26.6,93,30.21,0.1,Variable,2.3,-,N/A,Fog,Light Freezing Fog,0,2011-11-15 10:30:00
12:00 PM,28.4,26.6,93,30.21,0.1,NE,3.5,-,N/A,Fog,Light Freezing Fog,50,2011-11-15 11:00:00
12:30 PM,28.4,28.4,100,30.21,0.1,North,3.5,-,N/A,Fog,Light Freezing Fog,10,2011-11-15 11:30:00
1:00 PM,29,28,95,30.30,0,NNW,4.5,,,Fog,Heavy Fog,340,2011-11-15 12:00:00
1:00 PM,28.4,28.4,100,30.21,0.1,NNE,3.5,-,N/A,Fog,Light Freezing Fog,20,2011-11-15 12:00:00
2:00 PM,26.6,26.6,100,30.21,0.1,NNW,3.5,-,N/A,Fog,Light Freezing Fog,340,2011-11-15 13:00:00
2:15 PM,26.6,26.6,100,30.21,0.1,NNE,4.6,-,N/A,Fog,Light Freezing Fog,30,2011-11-15 13:15:00
2:30 PM,26.6,26.6,100,30.21,0.1,North,3.5,-,N/A,Fog,Light Freezing Fog,10,2011-11-15 13:30:00
3:00 PM,26.6,26.6,100,30.21,0.1,Variable,1.2,-,N/A,Fog,Light Freezing Fog,0,2011-11-15 14:00:00
3:30 PM,26.6,26.6,100,30.21,0.1,Variable,2.3,-,N/A,Fog,Light Freezing Fog,0,2011-11-15 14:30:00
4:00 PM,26.6,26.6,100,30.21,0.1,NNW,3.5,-,N/A,Fog,Light Freezing Fog,340,2011-11-15 15:00:00
4:30 PM,26.6,24.8,93,30.21,0.1,North,3.5,-,N/A,Fog,Light Freezing Fog,350,2011-11-15 15:30:00
5:00 PM,26.6,24.8,93,30.21,0.1,North,3.5,-,N/A,Fog,Light Freezing Fog,350,2011-11-15 16:00:00
5:30 PM,26.6,24.8,93,30.21,0.2,NNE,4.6,-,N/A,Fog,Light Freezing Fog,20,2011-11-15 16:30:00
6:00 PM,26.6,24.8,93,30.21,0.2,NNE,3.5,-,N/A,Fog,Light Freezing Fog,30,2011-11-15 17:00:00
6:30 PM,26.6,24.8,93,30.21,0.2,NE,3.5,-,N/A,Fog,Light Freezing Fog,40,2011-11-15 17:30:00
6:45 PM,24.8,24.8,100,30.21,0.2,NNE,3.5,-,N/A,Fog,Light Freezing Fog,20,2011-11-15 17:45:00
7:00 PM,26,24,90,30.32,0,NNE,2.2,,,Fog,Heavy Fog,30,2011-11-15 18:00:00
7:00 PM,24.8,24.8,100,30.21,0.2,NE,3.5,-,N/A,Fog,Light Freezing Fog,50,2011-11-15 18:00:00
7:30 PM,26.6,24.8,93,30.24,0.2,NNE,4.6,-,N/A,Fog,Light Freezing Fog,20,2011-11-15 18:30:00
7:51 PM,26.6,24.8,93,30.24,0.1,NE,3.5,-,N/A,Fog,Light Freezing Fog,40,2011-11-15 18:51:00
8:00 PM,26.6,24.8,93,30.21,0.1,NE,3.5,-,N/A,Fog,Light Freezing Fog,40,2011-11-15 19:00:00
8:30 PM,26.6,24.8,93,30.24,0.1,NNE,5.8,-,N/A,Fog,Light Freezing Fog,30,2011-11-15 19:30:00
9:00 PM,26.6,24.8,93,30.24,0.1,NNE,3.5,-,N/A,Fog,Light Freezing Fog,30,2011-11-15 20:00:00
9:30 PM,26.6,26.6,100,30.24,0.1,NNE,4.6,-,N/A,Fog,Light Freezing Fog,20,2011-11-15 20:30:00
10:00 PM,26.6,26.6,100,30.24,0.1,ENE,6.9,-,N/A,Fog,Light Freezing Fog,60,2011-11-15 21:00:00
10:30 PM,26.6,26.6,100,30.24,0.1,ENE,5.8,-,N/A,Fog,Light Freezing Fog,60,2011-11-15 21:30:00
11:00 PM,26.6,26.6,100,30.24,0.1,ENE,3.5,-,N/A,Fog,Light Freezing Fog,70,2011-11-15 22:00:00
11:30 PM,26.6,26.6,100,30.24,0.1,NNE,5.8,-,N/A,Fog,Light Freezing Fog,30,2011-11-15 22:30:00